Home > Weather > Nancy > Past weeks

Flag for France Weather for the Past 2 Weeks in Nancy, Lorraine, France

Now
43 °F

Light rain. Mostly cloudy.


Feels Like: 37 °F
Forecast: 40 / 56 °F
Wind: 9 mph from North

Location: Nancy / Ochey

Current Time: Apr 30, 2016 at 9:44:54 PM

Latest Report: Apr 30, 2016 at 9:00 PM


Visibility: 6 mi

Pressure: 30.04 "Hg

Humidity: 100%

Dew Point: 43 °F

Location of NancyLocation

Historic Weather in Nancy — Graph

°F

Nancy Temperature Yesterday

Maximum temperature yesterday: 54 °F (at 12:30 PM)
Minimum temperature yesterday: 36 °F (at 4:30 AM)
Average temperature yesterday: 46 °F

High & Low Weather Summary for the Past Weeks

 TemperatureHumidityPressure
High70 °F (Apr 22, 3:30 PM)100% (Apr 16, 6:00 AM)30.33 "Hg (Apr 16, 6:00 AM)
Low30 °F (Apr 24, 6:30 AM)34% (Apr 20, 6:00 PM)29.62 "Hg (Apr 16, 3:00 AM)
Average46 °F74%29.98 "Hg
* Reported Apr 15 8:00 PM — Apr 30 8:30 PM, Nancy, Weather by CustomWeather, © 2016

Note: Actual official high and low records may vary slightly from our data, if they occured in-between our weather recording intervals... More about our weather records

Advertising

Nancy Weather History for the Previous 24 Hours

Scroll right to see more
 ConditionsComfort  
Time TempWeatherWind HumidityBarometerVisibility
8:30 PM
Sat, Apr 30
43 °FLight rain. Partly sunny.8 mph100%30.04 "HgN/A
8:00 PM45 °FDrizzle. Mostly cloudy.10 mph93%30.01 "HgN/A
7:30 PM45 °FLight rain. Mostly cloudy.8 mph93%30.01 "HgN/A
7:00 PM45 °FLight rain. Mostly cloudy.9 mph93%30.01 "HgN/A
6:30 PM45 °FLight rain. Mostly cloudy.12 mph93%30.01 "HgN/A
6:00 PM45 °FDrizzle. Mostly cloudy.12 mph93%30.01 "HgN/A
5:30 PM45 °FDrizzle. Partly sunny.10 mph93%30.01 "HgN/A
5:00 PM46 °FLight rain. Partly sunny.9 mph82%30.01 "HgN/A
4:30 PM46 °FSunny.9 mph87%30.01 "Hg10 mi
4:00 PM46 °FPartly sunny.13 mph82%30.01 "HgN/A
3:30 PM46 °FPartly sunny.14 mph87%30.01 "HgN/A
3:00 PM46 °FOvercast.14 mph87%30.01 "HgN/A
2:30 PM48 °FSunny.13 mph87%30.01 "Hg10 mi
2:00 PM50 °FLight rain. Mostly cloudy.7 mph71%30.01 "HgN/A
1:30 PM50 °FLight rain. Overcast.3 mph67%30.01 "HgN/A
1:00 PM52 °FLight rain. Mostly cloudy.3 mph62%30.01 "HgN/A
12:30 PM52 °FMostly cloudy.No wind58%30.01 "HgN/A
12:00 PM50 °FMostly cloudy.3 mph62%30.01 "HgN/A
11:30 AM50 °FPassing clouds.3 mph58%30.01 "HgN/A
11:00 AM50 °FSunny.5 mph67%30.01 "Hg10 mi
10:30 AM48 °FSunny.2 mph71%30.01 "Hg10 mi
10:00 AM46 °FSunny.2 mph76%30.01 "Hg10 mi
9:30 AM48 °FSunny.No wind62%30.01 "Hg10 mi
9:00 AM46 °FSunny.2 mph66%30.01 "Hg10 mi
8:30 AM45 °FSunny.2 mph76%30.01 "Hg10 mi
8:00 AM43 °FSunny.5 mph76%30.01 "Hg10 mi
7:30 AM41 °FSunny.6 mph81%30.01 "Hg10 mi
7:00 AM39 °FClear.No wind93%29.98 "Hg10 mi
6:30 AM41 °FClear.2 mph81%29.98 "Hg10 mi
6:00 AM41 °FClear.3 mph76%29.98 "Hg10 mi
5:30 AM39 °FClear.2 mph87%30.01 "Hg10 mi
5:00 AM41 °FClear.1 mph76%30.01 "Hg10 mi
4:30 AM43 °FClear.2 mph71%30.01 "Hg10 mi
4:00 AM43 °FClear.7 mph66%29.98 "Hg10 mi
3:30 AM43 °FClear.6 mph66%29.98 "Hg10 mi
3:00 AM43 °FClear.6 mph66%30.01 "Hg10 mi
2:30 AM43 °FClear.7 mph66%30.01 "Hg10 mi
1:30 AM45 °FClear.6 mph66%30.01 "Hg10 mi
1:00 AM45 °FClear.6 mph61%30.01 "Hg10 mi
12:30 AM45 °FClear.7 mph61%30.01 "Hg10 mi
12:00 AM45 °FClear.7 mph61%30.01 "Hg10 mi
11:30 PM
Fri, Apr 29
45 °FClear.7 mph66%30.01 "Hg10 mi
11:00 PM45 °FClear.7 mph66%30.01 "Hg10 mi
10:30 PM45 °FClear.6 mph66%30.01 "Hg10 mi
10:00 PM46 °FClear.5 mph62%30.01 "Hg10 mi
9:30 PM48 °FSunny.5 mph58%30.01 "Hg10 mi
9:00 PM48 °FSunny.2 mph58%30.01 "Hg10 mi
Weather by CustomWeather, © 2016

See weather overviewHow to use our weather pages